| time (UTC) | temp F | wind direction | speed MPH | gust MPH | rain 1hr in | rain 24hr in | rain mn in | humidity % | barometer mb |
| 20260510185605 | 67 | 172 | 1.0 | 7.0 | 0.00 | 0.00 | 0.00 | 76 | 1013.2 |
| 20260510185105 | 68 | 173 | 2.0 | 5.0 | 0.00 | 0.00 | 0.00 | 74 | 1013.1 |
| 20260510184604 | 69 | 197 | 2.0 | 6.0 | 0.00 | 0.00 | 0.00 | 75 | 1013.1 |
| 20260510184108 | 69 | 173 | 2.0 | 6.0 | 0.00 | 0.00 | 0.00 | 73 | 1013.1 |
| 20260510183604 | 70 | 167 | 3.0 | 6.0 | 0.00 | 0.00 | 0.00 | 72 | 1013.0 |
| 20260510183105 | 70 | 162 | 4.0 | 7.0 | 0.00 | 0.00 | 0.00 | 75 | 1013.0 |
| 20260510182604 | 70 | 197 | 2.0 | 3.0 | 0.00 | 0.00 | 0.00 | 75 | 1013.0 |
| 20260510182104 | 70 | 217 | 3.0 | 6.0 | 0.00 | 0.00 | 0.00 | 77 | 1013.0 |
| 20260510181604 | 69 | 222 | 1.0 | 8.0 | 0.00 | 0.00 | 0.00 | 78 | 1013.0 |
| 20260510181104 | 69 | 224 | 1.0 | 5.0 | 0.00 | 0.00 | 0.00 | 81 | 1013.1 |
| 20260510180104 | 67 | 174 | 2.0 | 6.0 | 0.00 | 0.00 | 0.00 | 82 | 1013.3 |
| 20260510175604 | 66 | 183 | 4.0 | 9.0 | 0.00 | 0.00 | 0.00 | 82 | 1013.4 |
| 20260510175104 | 66 | 182 | 2.0 | 5.0 | 0.00 | 0.00 | 0.00 | 83 | 1013.3 |
| 20260510174604 | 65 | 175 | 2.0 | 5.0 | 0.00 | 0.00 | 0.00 | 82 | 1013.3 |
| 20260510174104 | 65 | 182 | 2.0 | 5.0 | 0.00 | 0.00 | 0.00 | 82 | 1013.4 |
| 20260510173605 | 65 | 174 | 2.0 | 6.0 | 0.00 | 0.00 | 0.00 | 82 | 1013.4 |
| 20260510173104 | 65 | 177 | 3.0 | 7.0 | 0.00 | 0.00 | 0.00 | 82 | 1013.2 |
| 20260510172604 | 65 | 183 | 2.0 | 5.0 | 0.00 | 0.00 | 0.00 | 83 | 1013.2 |
| 20260510172104 | 65 | 163 | 2.0 | 6.0 | 0.00 | 0.00 | 0.00 | 82 | 1013.2 |
| 20260510171604 | 65 | 179 | 3.0 | 8.0 | 0.00 | 0.00 | 0.00 | 83 | 1013.2 |
| 20260510171105 | 65 | 170 | 2.0 | 7.0 | 0.00 | 0.00 | 0.00 | 84 | 1013.2 |
| 20260510170604 | 65 | 206 | 2.0 | 3.0 | 0.00 | 0.00 | 0.00 | 83 | 1013.3 |
| 20260510170104 | 65 | 215 | 1.0 | 6.0 | 0.00 | 0.00 | 0.00 | 85 | 1013.4 |
| 20260510165605 | 64 | 172 | 2.0 | 6.0 | 0.00 | 0.00 | 0.00 | 83 | 1013.4 |
| 20260510165104 | 65 | 147 | 3.0 | 7.0 | 0.00 | 0.00 | 0.00 | 83 | 1013.3 |
| 20260510164604 | 65 | 152 | 2.0 | 5.0 | 0.00 | 0.00 | 0.00 | 84 | 1013.3 |
| 20260510163604 | 64 | 200 | 2.0 | 6.0 | 0.00 | 0.00 | 0.00 | 85 | 1013.4 |
| 20260510162605 | 64 | 163 | 2.0 | 7.0 | 0.00 | 0.00 | 0.00 | 85 | 1013.5 |
| 20260510162105 | 63 | 191 | 2.0 | 3.0 | 0.00 | 0.00 | 0.00 | 86 | 1013.5 |
| 20260510161604 | 63 | 211 | 3.0 | 7.0 | 0.00 | 0.00 | 0.00 | 87 | 1013.5 |
| 20260510161105 | 63 | 101 | 1.0 | 6.0 | 0.00 | 0.00 | 0.00 | 88 | 1013.5 |
| 20260510160605 | 63 | 165 | 2.0 | 3.0 | 0.00 | 0.00 | 0.00 | 89 | 1013.5 |
| 20260510155605 | 62 | 227 | 1.0 | 3.0 | 0.00 | 0.00 | 0.00 | 92 | 1013.6 |
| 20260510154604 | 60 | 214 | 1.0 | 3.0 | 0.00 | 0.00 | 0.00 | 93 | 1013.8 |
| 20260510154104 | 60 | 167 | 0.0 | 5.0 | 0.00 | 0.00 | 0.00 | 94 | 1013.9 |
| 20260510152605 | 58 | 176 | 1.0 | 3.0 | 0.00 | 0.00 | 0.00 | 94 | 1014.0 |
| 20260510152104 | 58 | 263 | 1.0 | 2.0 | 0.00 | 0.00 | 0.00 | 95 | 1014.2 |
| 20260510151604 | 58 | 233 | 0.0 | 2.0 | 0.00 | 0.00 | 0.00 | 95 | 1014.1 |
| 20260510151104 | 57 | 233 | 2.0 | 5.0 | 0.00 | 0.00 | 0.00 | 95 | 1014.1 |
| 20260510145604 | 56 | 165 | 1.0 | 2.0 | 0.00 | 0.00 | 0.00 | 96 | 1014.0 |
| 20260510145105 | 56 | 209 | 1.0 | 2.0 | 0.00 | 0.00 | 0.00 | 96 | 1014.0 |
| 20260510144604 | 55 | 209 | 1.0 | 2.0 | 0.00 | 0.00 | 0.00 | 96 | 1013.8 |
| 20260510143605 | 55 | 208 | 1.0 | 3.0 | 0.00 | 0.00 | 0.00 | 95 | 1013.7 |
| 20260510143105 | 55 | 186 | 1.0 | 3.0 | 0.00 | 0.00 | 0.00 | 95 | 1013.7 |
| 20260510141604 | 55 | 164 | 1.0 | 3.0 | 0.00 | 0.00 | 0.00 | 95 | 1013.7 |
| 20260510141105 | 55 | 182 | 0.0 | 3.0 | 0.00 | 0.00 | 0.00 | 95 | 1013.6 |
| 20260510140605 | 55 | 162 | 1.0 | 2.0 | 0.00 | 0.00 | 0.00 | 96 | 1013.7 |
| 20260510140104 | 55 | 175 | 1.0 | 2.0 | 0.00 | 0.00 | 0.00 | 96 | 1013.7 |
| 20260510135605 | 55 | 187 | 0.0 | 0.0 | 0.00 | 0.00 | 0.00 | 96 | 1013.7 |
| 20260510135104 | 55 | 187 | 0.0 | 0.0 | 0.00 | 0.00 | 0.00 | 96 | 1013.7 |
| 20260510134105 | 55 | 185 | 1.0 | 2.0 | 0.00 | 0.00 | 0.00 | 96 | 1013.5 |
| 20260510133105 | 55 | 169 | 0.0 | 1.0 | 0.00 | 0.00 | 0.00 | 96 | 1013.5 |
| 20260510132604 | 55 | 169 | 2.0 | 3.0 | 0.00 | 0.00 | 0.00 | 96 | 1013.5 |
| 20260510132104 | 55 | 186 | 0.0 | 2.0 | 0.00 | 0.00 | 0.00 | 97 | 1013.5 |
| 20260510131104 | 55 | 157 | 1.0 | 3.0 | 0.00 | 0.00 | 0.00 | 97 | 1013.5 |
| 20260510130605 | 55 | 166 | 2.0 | 3.0 | 0.00 | 0.00 | 0.00 | 97 | 1013.4 |
| 20260510130105 | 55 | 165 | 1.0 | 3.0 | 0.00 | 0.00 | 0.00 | 97 | 1013.5 |
| 20260510125605 | 55 | 190 | 0.0 | 2.0 | 0.00 | 0.00 | 0.00 | 97 | 1013.4 |
| 20260510125104 | 55 | 190 | 1.0 | 3.0 | 0.00 | 0.00 | 0.00 | 97 | 1013.4 |
| 20260510124605 | 55 | 180 | 1.0 | 2.0 | 0.00 | 0.00 | 0.00 | 97 | 1013.4 |
| 20260510124104 | 55 | 168 | 1.0 | 3.0 | 0.00 | 0.00 | 0.00 | 97 | 1013.2 |
| 20260510123605 | 55 | 221 | 0.0 | 1.0 | 0.00 | 0.00 | 0.00 | 97 | 1013.2 |
| 20260510123105 | 55 | 221 | 0.0 | 1.0 | 0.00 | 0.00 | 0.00 | 97 | 1013.2 |
| 20260510122604 | 55 | 221 | 0.0 | 2.0 | 0.00 | 0.00 | 0.00 | 97 | 1013.1 |
| 20260510122104 | 55 | 221 | 0.0 | 2.0 | 0.00 | 0.00 | 0.00 | 97 | 1012.9 |
| 20260510121605 | 55 | 219 | 2.0 | 5.0 | 0.00 | 0.00 | 0.00 | 97 | 1012.9 |
| 20260510120604 | 54 | 188 | 0.0 | 1.0 | 0.00 | 0.00 | 0.00 | 97 | 1013.0 |
| 20260510115604 | 54 | 206 | 0.0 | 0.0 | 0.00 | 0.00 | 0.00 | 97 | 1012.7 |
| 20260510115104 | 54 | 206 | 0.0 | 0.0 | 0.00 | 0.00 | 0.00 | 97 | 1012.7 |
| 20260510114604 | 54 | 206 | 0.0 | 0.0 | 0.00 | 0.00 | 0.00 | 97 | 1012.5 |
| 20260510113104 | 54 | 174 | 1.0 | 3.0 | 0.00 | 0.00 | 0.00 | 97 | 1012.5 |
| 20260510111104 | 53 | 234 | 0.0 | 2.0 | 0.00 | 0.00 | 0.00 | 97 | 1012.6 |
| 20260510110604 | 53 | 234 | 0.0 | 1.0 | 0.00 | 0.00 | 0.00 | 97 | 1012.5 |
| 20260510110104 | 53 | 234 | 0.0 | 1.0 | 0.00 | 0.00 | 0.00 | 97 | 1012.4 |
| 20260510105604 | 52 | 234 | 1.0 | 2.0 | 0.00 | 0.00 | 0.00 | 97 | 1012.5 |
| 20260510105104 | 52 | 234 | 0.0 | 1.0 | 0.00 | 0.00 | 0.00 | 97 | 1012.5 |
| 20260510104604 | 52 | 234 | 0.0 | 2.0 | 0.00 | 0.00 | 0.00 | 97 | 1012.6 |
| 20260510104104 | 52 | 234 | 0.0 | 1.0 | 0.00 | 0.00 | 0.00 | 96 | 1012.5 |
| 20260510103104 | 52 | 234 | 0.0 | 1.0 | 0.00 | 0.00 | 0.00 | 96 | 1012.3 |
| 20260510102604 | 52 | 234 | 0.0 | 1.0 | 0.00 | 0.00 | 0.00 | 96 | 1012.3 |
| 20260510102105 | 52 | 234 | 0.0 | 0.0 | 0.00 | 0.00 | 0.00 | 96 | 1012.5 |
| 20260510101604 | 52 | 234 | 0.0 | 0.0 | 0.00 | 0.00 | 0.00 | 96 | 1012.5 |
| 20260510101104 | 52 | 234 | 0.0 | 1.0 | 0.00 | 0.00 | 0.00 | 96 | 1012.4 |
| 20260510100604 | 52 | 234 | 1.0 | 1.0 | 0.00 | 0.00 | 0.00 | 96 | 1012.3 |
| 20260510100104 | 52 | 234 | 0.0 | 0.0 | 0.00 | 0.00 | 0.00 | 96 | 1012.3 |
| 20260510094604 | 53 | 234 | 0.0 | 1.0 | 0.00 | 0.00 | 0.00 | 96 | 1012.7 |
| 20260510094104 | 53 | 234 | 0.0 | 1.0 | 0.00 | 0.00 | 0.00 | 96 | 1012.8 |
| 20260510093104 | 53 | 234 | 0.0 | 2.0 | 0.00 | 0.00 | 0.00 | 96 | 1012.7 |
| 20260510092604 | 53 | 234 | 1.0 | 2.0 | 0.00 | 0.00 | 0.00 | 96 | 1012.6 |
| 20260510092106 | 53 | 234 | 0.0 | 1.0 | 0.00 | 0.00 | 0.00 | 96 | 1012.5 |
| 20260510091604 | 53 | 234 | 0.0 | 0.0 | 0.00 | 0.00 | 0.00 | 96 | 1012.6 |
| 20260510091104 | 53 | 234 | 0.0 | 0.0 | 0.00 | 0.00 | 0.00 | 96 | 1012.6 |
| 20260510090604 | 53 | 234 | 0.0 | 0.0 | 0.00 | 0.00 | 0.00 | 96 | 1012.7 |
| 20260510090105 | 53 | 234 | 0.0 | 0.0 | 0.00 | 0.00 | 0.00 | 96 | 1012.8 |
| 20260510085104 | 53 | 234 | 0.0 | 1.0 | 0.00 | 0.00 | 0.00 | 96 | 1012.9 |
| 20260510084604 | 53 | 234 | 0.0 | 1.0 | 0.00 | 0.00 | 0.00 | 96 | 1012.8 |
| 20260510084104 | 53 | 234 | 0.0 | 2.0 | 0.00 | 0.00 | 0.00 | 96 | 1012.7 |
| 20260510083604 | 53 | 188 | 0.0 | 1.0 | 0.00 | 0.00 | 0.00 | 96 | 1012.7 |
| 20260510083104 | 53 | 188 | 0.0 | 1.0 | 0.00 | 0.00 | 0.00 | 96 | 1012.6 |
| 20260510082104 | 53 | 188 | 0.0 | 1.0 | 0.00 | 0.00 | 0.00 | 96 | 1012.1 |
| 20260510081105 | 53 | 188 | 0.0 | 1.0 | 0.00 | 0.00 | 0.00 | 96 | 1011.9 |
| 20260510080604 | 53 | 188 | 0.0 | 0.0 | 0.00 | 0.00 | 0.00 | 96 | 1011.9 |
| 20260510080104 | 53 | 188 | 0.0 | 0.0 | 0.00 | 0.00 | 0.00 | 96 | 1011.7 |
| 20260510075604 | 53 | 188 | 0.0 | 0.0 | 0.00 | 0.00 | 0.00 | 96 | 1011.8 |
| 20260510075104 | 53 | 188 | 0.0 | 0.0 | 0.00 | 0.00 | 0.00 | 96 | 1011.8 |
| 20260510074604 | 53 | 188 | 0.0 | 0.0 | 0.00 | 0.00 | 0.00 | 96 | 1011.9 |
| 20260510074105 | 53 | 188 | 0.0 | 0.0 | 0.00 | 0.00 | 0.00 | 96 | 1011.9 |